GFSMW_sfc_dewp_021.txt.gz
Dewpoint
41 40 42 43 45 50 51 52 53 52 48 46 43 42 42 42 42 42 46 47 46 47 48 45 46 48 46 49 51 51 51 50 51 49 49 49 49 48 44 45 43 41 41
36 39 42 45 46 46 46 44 43 43 42 41 42 44 45 43 44 45 46 45 44 44 43 46 44 46 44 48 50 50 47 48 50 48 47 45 44 45 46 44 45 47 43
33 36 40 44 46 46 44 43 43 44 45 45 42 43 43 43 41 41 42 42 44 44 44 45 43 45 46 44 48 48 48 45 47 50 46 44 41 43 44 47 45 46 46
34 36 39 42 46 46 46 44 44 43 44 46 43 44 42 41 42 44 43 44 46 43 40 39 41 44 45 46 46 42 46 46 43 44 42 46 48 44 43 44 45 45 44
37 38 40 42 44 47 47 46 43 43 44 45 45 44 44 43 43 43 43 42 40 39 37 38 41 43 43 44 46 46 46 45 44 43 42 43 43 43 41 40 42 44 44
38 38 39 40 43 46 46 45 43 41 43 45 46 45 44 43 40 40 39 37 37 37 38 37 41 43 44 44 45 43 43 42 41 40 39 38 38 37 36 37 38 37 43
39 38 39 39 41 43 44 44 43 42 42 43 43 43 42 42 41 40 38 39 37 36 37 40 42 41 44 43 42 42 42 41 40 39 39 40 39 38 37 37 37 37 39
38 38 39 40 41 42 44 45 44 43 42 43 43 44 44 41 41 40 40 38 36 37 39 41 42 42 43 44 43 42 41 41 39 37 37 36 36 35 32 32 34 32 30
37 37 38 40 41 42 43 44 44 42 42 43 44 44 42 42 41 41 38 36 38 36 39 41 43 42 41 40 39 39 39 40 39 37 37 35 33 34 32 31 30 31 28
37 37 38 40 40 40 42 44 42 40 41 42 42 40 41 41 39 37 37 37 37 38 41 41 41 38 38 39 39 38 38 38 40 40 39 39 38 38 37 34 34 31 28
37 36 37 39 40 41 41 39 39 39 39 39 39 39 37 38 36 35 35 36 37 35 35 36 36 39 38 39 38 38 36 36 35 35 35 35 33 30 28 27 25 25 27
36 36 37 40 40 39 38 37 38 37 37 36 35 35 35 36 35 35 37 39 36 37 38 40 41 40 38 36 35 34 34 33 32 31 31 30 24 27 26 24 24 24 24
35 36 37 37 37 37 37 35 36 35 34 32 32 33 34 37 38 38 40 38 37 36 35 37 39 36 35 30 27 25 25 25 25 25 25 25 25 25 25 24 24 23 18
35 36 37 36 36 35 32 34 34 33 31 31 32 32 36 35 35 37 35 33 32 30 28 27 26 27 25 23 23 23 24 24 23 24 25 24 24 25 24 23 23 21 22
35 36 36 36 33 29 32 33 32 31 30 31 30 32 33 32 32 32 31 29 28 25 23 23 23 24 23 19 24 24 23 23 22 23 21 23 26 28 26 20 21 21 22
36 37 34 31 28 29 32 31 31 30 30 30 30 30 31 31 32 30 29 26 23 22 23 23 23 24 19 26 25 24 22 21 21 21 22 22 26 25 29 29 28 26 21
38 36 30 28 28 30 31 29 28 28 27 28 28 29 30 29 29 25 21 21 23 23 23 23 23 23 23 24 24 25 23 21 22 23 22 20 17 24 20 25 28 28 29
37 33 29 28 28 28 30 29 26 27 27 26 28 30 29 28 26 22 20 22 23 23 23 24 23 24 22 26 25 25 23 23 23 22 22 21 21 23 25 24 25 25 25
34 30 28 26 25 27 29 27 27 26 24 23 24 26 28 27 24 20 22 23 23 23 23 23 25 25 25 28 26 25 24 24 23 21 23 24 24 26 27 27 28 25 25
29 26 26 25 25 25 27 26 25 26 25 22 23 24 26 25 23 22 23 23 23 22 22 26 25 26 26 28 25 25 25 25 24 24 22 25 25 27 28 29 29 27 23
27 26 26 25 25 25 25 25 24 24 23 23 24 25 29 28 23 23 23 22 23 26 30 32 30 27 30 27 25 25 26 24 26 24 25 26 29 27 26 26 26 26 27
23 23 25 25 25 24 24 22 21 23 28 30 30 34 37 31 23 24 24 23 23 25 28 32 30 27 31 25 24 23 23 25 25 25 26 29 26 25 25 25 26 25 24
21 23 23 24 23 22 21 21 23 27 30 32 34 35 31 28 25 26 25 22 22 25 27 24 26 25 25 24 23 21 23 23 25 27 26 26 27 26 26 28 25 25 27
17 19 21 20 21 21 20 21 25 30 28 29 29 31 31 28 26 24 21 20 24 25 23 22 22 21 21 23 21 23 24 23 24 24 25 28 27 27 28 28 27 27 28
18 21 21 21 21 21 22 24 27 28 26 27 26 27 28 27 28 26 23 23 25 25 22 21 21 22 21 20 20 22 23 24 23 23 27 24 23 23 24 25 25 25 24
21 21 20 20 21 22 26 27 28 28 29 27 26 27 28 28 27 24 23 25 24 22 21 19 21 21 18 18 20 20 20 22 21 23 22 22 22 22 22 22 23 23 22

GFSMW_sfc_dewp_024.txt.gz
Dewpoint
41 44 46 49 51 55 54 54 54 54 52 51 49 49 50 50 50 50 52 51 51 49 50 49 49 49 49 49 50 49 48 48 49 49 47 48 49 49 47 47 45 44 44
40 43 46 48 49 49 49 48 47 49 48 47 48 50 50 50 50 50 48 49 49 48 47 48 47 47 47 47 47 47 47 47 48 47 46 43 44 45 45 46 44 44 43
37 41 44 48 50 49 49 46 47 48 49 50 47 48 48 49 47 48 47 48 50 49 49 49 48 47 46 46 46 46 45 45 46 47 46 42 40 43 44 44 48 50 50
36 39 43 46 49 50 51 48 47 46 47 49 48 49 47 45 47 47 46 45 48 47 44 44 45 46 47 45 46 45 47 45 43 44 43 42 43 42 40 42 43 47 47
39 40 42 45 47 51 51 50 47 46 48 48 50 49 48 47 46 46 46 45 45 44 43 42 43 45 46 46 46 44 43 42 41 41 40 39 39 40 38 37 38 39 40
39 39 41 44 46 51 50 50 47 45 47 47 48 47 46 46 45 45 44 43 42 41 41 41 43 44 45 45 44 43 42 41 41 40 39 37 36 36 35 34 34 35 38
41 40 40 40 43 46 48 47 47 45 47 48 48 48 48 48 46 44 43 41 39 39 39 41 43 44 45 44 43 42 42 41 39 38 38 38 37 36 36 36 35 35 36
41 41 42 42 43 45 46 47 46 45 44 47 47 47 47 45 43 43 40 39 39 39 41 44 44 44 44 43 42 42 42 41 41 39 39 38 39 38 37 35 34 32 30
39 39 40 43 43 44 45 47 45 43 43 45 46 46 45 45 43 41 41 40 40 37 41 42 43 41 40 41 41 40 39 40 41 41 40 39 39 38 37 34 32 32 28
38 38 38 41 42 43 44 47 44 41 42 42 43 40 41 41 41 40 40 39 40 39 39 40 40 40 41 40 40 39 39 40 39 39 39 39 39 40 40 38 36 34 30
37 38 38 41 42 44 44 43 41 39 39 39 40 40 39 39 39 39 40 41 40 39 38 40 41 41 40 39 38 37 36 35 35 35 34 34 34 33 34 33 31 32 34
37 37 38 40 40 41 41 39 40 39 38 37 36 36 38 40 39 38 37 39 40 39 38 37 39 39 39 38 37 34 33 33 32 31 30 29 26 28 28 28 27 27 27
36 36 38 39 37 38 37 36 38 37 35 32 33 34 36 37 36 37 38 38 37 35 34 32 32 31 31 30 28 26 27 26 25 25 25 26 26 26 27 27 26 26 23
35 36 37 37 37 36 33 33 35 36 34 31 32 34 36 36 35 36 37 36 34 32 29 28 28 29 26 24 25 25 26 25 23 25 25 24 25 25 25 25 25 23 23
37 37 37 37 34 32 32 33 35 33 34 31 31 33 35 34 35 35 35 34 32 28 27 26 28 28 25 21 26 25 25 24 23 23 23 23 27 30 28 21 22 22 22
38 36 36 34 31 30 30 33 33 32 33 31 31 31 34 34 34 34 34 32 28 27 27 27 27 27 21 27 26 25 24 24 23 22 22 24 27 25 29 30 31 26 23
37 36 35 33 30 30 28 28 31 32 31 30 29 31 35 32 32 31 29 26 27 27 27 27 27 27 27 27 26 26 24 24 23 23 22 22 21 25 23 26 27 30 29
35 35 32 30 29 27 26 29 29 31 31 31 32 28 34 32 31 31 28 27 27 27 26 27 27 27 25 30 28 27 25 23 23 23 21 21 23 24 25 24 25 26 26
34 31 29 28 28 27 27 25 25 24 25 27 32 34 31 29 31 29 27 26 27 27 27 26 27 27 26 29 30 30 25 25 23 22 22 23 22 25 26 26 26 26 26
28 26 26 25 27 27 26 25 23 22 24 30 32 31 29 28 30 31 29 27 27 26 29 29 29 29 27 30 30 28 27 24 24 23 23 25 25 29 28 27 27 26 25
23 22 22 23 23 25 24 22 20 20 23 28 31 33 36 37 36 35 29 27 27 27 30 30 29 28 28 28 28 27 26 25 23 22 22 24 27 29 28 26 25 25 26
17 17 18 19 21 21 21 19 18 20 25 30 31 31 35 35 34 31 28 28 26 27 28 25 26 27 28 27 25 27 23 21 23 23 24 27 24 28 26 26 27 28 26
16 17 18 20 21 21 21 20 22 25 29 28 29 31 34 35 33 33 29 25 24 26 26 25 24 24 24 24 23 21 20 21 22 24 25 25 27 27 26 27 29 28 26
18 18 19 19 21 21 21 23 28 28 27 28 28 28 29 30 30 28 26 25 27 26 25 24 22 21 21 20 19 20 22 21 22 22 22 25 25 25 26 27 27 27 27
20 20 21 21 22 22 25 27 28 29 29 29 28 28 30 30 29 27 26 26 27 25 24 23 22 19 18 18 18 20 20 21 22 21 24 23 21 22 22 23 24 26 24
20 21 22 22 24 26 28 28 28 29 29 28 27 29 29 30 28 26 25 27 26 24 23 21 21 20 19 19 18 18 19 20 22 22 21 20 19 20 21 21 21 21 22

GFSMW_sfc_dewp_027.txt.gz
Dewpoint
44 45 46 47 47 46 46 46 47 47 46 45 45 45 45 46 46 48 46 45 47 47 47 47 45 45 45 46 45 45 45 45 47 46 45 46 47 47 49 50 48 47 45
44 46 48 48 49 45 45 45 45 45 45 45 46 46 46 46 46 48 47 48 47 46 45 46 46 46 45 45 44 44 43 45 45 44 44 41 42 43 45 46 48 49 50
43 44 45 46 46 45 44 44 45 45 46 45 45 46 46 46 45 45 44 46 46 45 43 42 43 43 45 44 43 45 45 44 44 43 42 40 40 40 42 43 46 46 43
42 44 45 45 46 46 46 44 44 44 45 45 45 45 45 43 45 44 44 43 43 42 41 42 42 43 44 43 45 43 42 41 40 41 40 40 41 37 34 41 41 40 40
40 42 44 45 46 46 45 44 44 44 45 46 46 46 43 44 44 44 43 42 42 41 40 39 40 41 43 45 42 41 42 41 40 40 38 37 37 38 35 33 35 36 36
39 41 44 45 46 46 45 44 44 44 45 45 44 43 43 44 44 42 41 41 40 40 39 38 41 44 44 43 44 43 41 41 40 38 37 37 34 34 34 32 32 33 35
38 38 39 41 44 42 44 43 44 43 44 46 45 44 44 43 42 41 40 38 38 38 38 42 43 44 43 43 42 42 41 41 39 36 36 36 36 37 35 35 33 33 34
37 37 39 39 41 42 43 43 43 42 44 45 44 44 42 43 41 39 38 38 37 37 39 41 41 39 40 41 41 42 42 40 39 38 39 40 37 39 36 35 32 30 30
37 37 39 40 41 41 43 43 39 40 42 42 41 40 41 41 38 37 37 38 39 37 39 39 39 39 39 39 41 40 38 38 38 38 38 40 40 41 40 39 37 35 29
37 37 39 40 41 41 42 41 39 39 38 37 37 36 36 37 38 38 39 39 39 38 37 40 40 40 40 40 38 38 38 37 36 37 36 37 38 37 38 38 39 38 35
37 38 39 40 40 41 41 39 37 37 35 34 35 35 38 38 38 37 37 38 38 39 38 38 40 39 39 39 38 37 37 36 34 34 34 33 34 34 33 34 34 33 32
36 36 38 38 38 37 37 37 37 35 34 33 33 33 38 37 35 35 35 36 36 38 36 34 33 37 38 37 37 36 32 28 26 26 26 26 24 26 28 29 28 28 28
35 37 37 37 37 37 35 34 35 33 32 30 31 31 33 35 32 34 35 36 35 34 32 30 28 29 29 28 27 27 27 25 25 25 25 24 24 23 24 25 25 27 24
37 37 37 37 36 35 32 31 34 33 32 30 30 31 32 34 33 34 34 34 33 31 27 27 28 29 27 26 26 25 25 25 25 26 25 24 24 24 25 25 25 23 23
37 37 36 35 35 32 31 31 34 33 33 31 31 32 33 35 34 34 34 34 31 28 26 26 27 27 26 23 24 24 24 24 24 25 23 23 25 28 29 25 26 24 22
37 36 36 35 34 30 29 29 30 34 33 30 32 33 35 34 35 34 33 33 27 24 25 25 26 26 23 28 27 26 24 24 24 23 22 23 25 25 26 28 28 28 27
36 35 35 34 30 29 27 27 29 30 30 31 34 35 36 37 37 37 35 28 24 24 24 25 27 27 25 28 27 27 25 24 23 22 22 20 17 23 24 25 27 27 28
36 35 33 30 28 28 27 27 26 26 27 32 31 34 36 37 37 36 33 27 25 23 24 26 27 26 25 30 31 30 26 25 24 23 23 21 22 23 24 23 24 25 27
34 33 29 28 28 26 26 25 24 23 24 29 32 34 35 35 36 34 33 32 27 26 27 29 28 27 27 30 31 30 26 26 25 25 23 22 22 24 26 27 26 25 26
25 22 20 22 22 23 24 23 21 21 24 30 31 33 36 36 35 34 33 33 28 28 29 28 28 29 26 29 29 27 24 21 23 23 22 23 22 27 28 28 25 23 22
18 19 18 19 20 22 22 22 20 21 27 30 30 31 35 36 36 35 32 28 26 28 26 25 26 26 27 25 26 26 24 23 23 21 21 22 24 25 26 27 26 25 25
18 19 19 20 20 19 22 21 22 27 29 30 30 30 32 35 35 35 32 31 26 25 24 15 19 23 23 23 23 21 20 20 20 21 22 24 26 28 26 26 28 29 28
19 20 19 21 22 23 22 26 28 28 29 29 29 29 29 30 32 33 33 25 24 21 21 23 17 19 22 20 21 20 21 21 20 22 24 25 25 25 26 27 27 28 27
21 20 20 21 23 24 26 28 29 30 29 28 29 28 29 30 30 28 25 24 21 19 23 20 18 16 19 18 18 20 18 21 22 22 22 24 23 24 24 24 24 25 24
20 21 23 24 24 28 30 29 29 30 29 28 28 28 27 28 27 26 23 25 23 21 19 18 18 8 6 16 20 19 19 20 24 21 22 20 19 20 21 21 22 22 23
24 24 25 26 28 30 30 30 30 30 29 28 27 26 25 24 26 26 25 27 26 27 26 24 18 14 18 19 20 20 19 20 23 19 18 16 17 18 18 17 19 20 22

GFSMW_sfc_dewp_030.txt.gz
Dewpoint
45 46 47 49 45 46 47 50 52 49 48 48 48 47 45 46 47 46 48 47 46 46 45 45 44 45 45 44 44 44 43 43 44 44 43 44 44 45 44 46 47 48 49
44 44 47 48 48 50 47 47 45 45 44 45 45 46 45 47 46 45 46 45 43 43 40 42 42 42 44 43 43 43 44 44 43 41 42 40 39 42 38 43 46 43 43
44 44 45 48 47 45 45 44 44 44 45 45 45 45 45 45 44 44 43 43 42 41 41 41 41 41 43 42 43 42 42 41 41 41 39 36 35 35 37 34 41 41 40
44 44 44 45 44 44 44 43 44 44 45 45 45 44 43 41 43 43 42 41 41 40 40 40 40 41 42 43 43 42 40 41 39 41 39 40 39 35 31 36 34 37 36
43 44 44 45 45 44 43 44 44 44 45 46 45 45 43 44 44 43 40 39 40 40 39 41 42 43 44 43 41 41 41 40 39 38 39 36 35 35 34 30 33 34 35
42 44 45 45 45 45 44 44 44 44 45 45 45 45 43 43 41 40 38 39 39 38 40 42 42 43 42 42 41 41 40 39 38 38 36 35 34 32 32 32 31 31 33
40 43 44 44 45 44 44 44 43 44 44 44 43 43 42 41 39 38 37 37 36 37 38 41 41 42 41 40 40 40 39 38 38 38 37 36 36 37 36 35 34 33 32
38 40 40 41 42 42 42 42 42 43 44 44 41 41 42 40 39 37 37 37 37 37 38 40 39 39 39 39 39 39 39 39 37 36 37 38 40 39 39 36 35 32 33
37 39 40 40 41 42 42 39 40 41 40 40 38 38 40 38 37 37 38 38 38 37 38 38 38 39 39 39 38 38 37 37 36 36 36 37 38 39 38 37 37 33 30
38 39 39 40 41 41 41 40 39 37 36 35 35 35 37 38 38 38 38 38 37 38 38 38 39 39 39 39 38 36 36 35 35 36 35 33 34 34 34 35 35 35 34
38 38 38 38 38 38 37 38 37 35 33 33 34 36 38 38 37 36 36 37 37 36 37 37 36 38 38 37 36 36 36 34 31 28 27 26 27 27 27 29 28 29 31
37 38 38 37 37 36 35 37 36 34 32 32 32 32 38 37 36 35 35 35 34 36 37 34 29 29 30 30 31 31 27 25 24 25 25 25 22 23 24 26 25 25 26
37 37 37 36 36 35 34 32 35 32 32 31 31 31 32 36 35 34 35 35 36 34 34 29 27 27 28 27 27 27 26 25 25 25 25 24 24 23 23 24 25 26 25
37 36 36 36 36 35 32 31 33 34 34 32 30 31 32 32 35 34 36 37 37 37 31 27 27 28 27 25 25 24 23 23 24 25 25 24 24 23 24 25 26 25 24
37 36 36 36 35 33 30 29 30 33 33 31 32 34 34 34 35 34 36 38 38 36 32 27 26 27 25 23 23 23 24 24 24 25 24 23 23 23 23 24 25 26 24
36 36 35 34 34 31 29 28 29 30 31 32 34 35 36 36 36 37 37 38 38 38 28 25 26 27 23 29 28 26 24 24 24 23 22 22 23 21 23 24 26 25 24
36 35 33 33 31 28 27 26 26 27 28 32 33 35 35 36 36 37 37 38 37 30 27 27 27 27 25 29 29 31 27 25 24 24 23 22 21 23 22 24 25 25 26
34 33 31 27 27 26 25 25 23 24 27 31 33 34 35 35 35 36 36 33 31 32 32 28 28 27 26 30 31 31 27 26 26 25 24 23 22 22 22 23 27 26 26
33 25 22 23 22 22 23 23 22 22 27 30 31 32 34 36 35 34 33 32 34 34 29 29 27 26 26 29 29 27 23 24 23 23 22 21 20 22 25 27 24 26 24
20 18 18 20 20 20 22 22 21 23 28 30 30 31 35 35 35 34 35 35 35 28 28 27 26 26 24 25 25 23 23 17 21 22 20 21 21 25 25 25 24 23 22
19 20 19 19 19 21 23 22 23 26 29 30 30 30 31 34 34 34 33 32 27 27 25 24 24 24 23 22 22 21 20 20 21 19 20 21 23 27 26 26 26 26 25
19 20 20 20 21 22 24 25 26 27 29 29 29 29 29 30 34 33 33 29 25 24 23 12 17 21 22 20 20 20 20 20 18 20 22 24 25 24 26 26 27 26 26
19 20 20 22 23 24 27 27 28 28 29 29 28 28 29 30 29 29 25 24 24 20 21 22 14 18 22 19 21 21 21 21 20 22 25 22 22 23 24 25 25 25 24
19 20 22 23 25 28 29 29 29 29 29 28 27 28 26 28 27 25 25 23 20 18 22 19 17 15 18 17 18 20 17 21 22 21 22 21 21 21 23 22 23 23 24
23 24 25 26 27 29 30 31 30 30 29 28 27 26 25 26 26 26 24 25 23 21 19 18 17 5 4 15 21 22 20 19 21 14 17 17 17 17 18 18 20 21 22
25 26 27 28 29 29 30 30 31 31 29 29 27 26 24 23 25 25 25 26 27 28 29 27 17 13 19 21 21 20 18 17 18 13 11 14 15 15 15 15 16 17 18

GFSMW_sfc_dewp_033.txt.gz
Dewpoint
45 46 48 47 48 52 53 54 53 50 48 50 52 49 46 45 46 44 44 42 42 42 42 41 41 42 42 43 42 43 42 43 42 42 41 43 43 41 37 40 44 42 41
43 44 48 49 50 51 48 46 43 44 44 44 45 45 45 45 44 43 42 42 42 41 39 39 39 40 41 41 41 43 43 43 41 39 39 35 34 36 34 37 41 39 40
43 46 47 49 47 45 44 43 43 43 44 45 45 45 45 45 43 42 41 41 41 40 39 39 40 41 42 42 42 41 40 40 40 39 36 32 31 34 35 32 37 37 36
46 48 46 44 43 44 44 44 44 44 44 45 44 42 42 41 43 42 41 39 40 39 40 41 42 43 43 42 42 41 39 39 37 39 39 38 38 32 31 33 33 34 34
43 43 43 43 43 43 43 43 44 45 46 45 45 44 43 44 43 41 38 38 38 39 41 42 42 41 42 41 40 39 39 39 37 37 37 35 35 35 33 30 31 32 33
43 44 44 44 44 44 44 43 43 45 45 45 44 44 43 42 40 38 38 38 37 38 40 41 41 41 41 40 39 39 38 37 37 37 36 35 34 32 33 31 31 32 33
43 44 44 44 45 44 43 43 43 43 43 43 42 42 41 39 37 36 36 36 36 36 37 39 39 40 40 39 39 38 37 36 36 35 35 35 35 37 37 35 33 33 33
41 42 42 43 42 42 42 41 43 43 43 41 41 42 40 39 38 37 37 37 37 37 37 39 39 38 39 39 38 37 37 37 35 35 35 35 36 37 38 35 34 30 32
38 39 40 41 41 41 40 39 41 40 41 39 38 39 40 38 38 37 37 37 37 37 37 38 38 38 38 38 37 37 36 35 35 34 34 34 34 34 34 34 33 33 28
39 39 39 40 40 40 39 39 39 37 35 34 34 34 35 38 37 38 38 38 37 37 37 37 38 38 38 37 37 35 35 34 33 34 31 28 29 28 28 29 30 31 31
38 37 37 37 37 37 36 37 35 34 33 33 33 34 36 37 37 37 37 37 36 36 37 37 35 36 37 36 36 34 34 30 26 25 24 24 25 25 25 26 26 26 26
37 37 36 36 36 35 34 36 36 35 33 33 33 33 36 37 37 36 36 35 35 35 37 35 32 29 31 30 28 28 26 24 23 24 24 24 23 23 24 24 24 24 25
36 36 35 35 35 35 33 32 33 35 33 33 32 31 31 32 34 35 35 35 36 36 36 36 35 32 29 27 27 26 25 24 24 24 24 24 24 23 23 23 24 25 26
36 36 36 36 35 35 31 30 31 33 33 32 31 32 33 33 33 34 35 35 36 36 37 37 34 32 29 27 25 24 23 23 24 25 25 24 23 23 23 22 24 25 26
36 36 35 35 34 33 29 28 29 29 30 31 33 33 35 34 34 34 35 36 37 37 37 37 35 29 27 23 23 23 24 24 24 25 24 24 24 25 24 20 21 21 23
35 35 33 32 29 27 26 26 26 26 29 32 32 34 35 35 35 36 35 36 36 37 37 30 27 28 24 29 29 28 26 25 25 24 24 24 25 24 24 23 24 23 23
35 34 30 27 26 25 25 23 24 25 26 30 32 34 35 34 34 35 35 35 35 36 30 31 29 27 26 29 30 30 29 26 26 25 24 23 20 22 21 23 24 24 26
34 27 25 23 24 23 22 23 23 23 27 30 31 32 32 34 34 34 33 30 31 34 35 31 28 25 26 29 29 27 24 23 23 22 22 22 21 21 21 23 25 25 23
29 21 21 22 20 19 21 22 22 22 27 30 30 30 32 34 33 33 33 34 35 34 28 27 25 25 24 25 25 24 22 22 20 21 21 20 20 23 26 26 24 23 23
18 17 18 19 20 20 22 21 21 25 27 29 29 30 31 32 32 32 32 35 32 28 27 25 25 24 22 23 22 21 20 15 20 20 19 21 21 26 27 25 25 23 22
19 20 20 20 20 22 23 22 24 26 28 29 30 29 29 29 30 33 32 35 30 26 24 23 24 23 22 21 20 20 19 19 20 19 20 21 24 23 25 26 25 25 26
19 20 20 21 23 23 25 25 26 27 28 29 29 28 29 30 30 33 32 26 25 24 24 11 16 20 21 20 21 21 21 21 19 21 21 24 21 23 24 24 26 25 25
19 21 21 23 25 26 27 27 28 29 29 29 28 28 27 28 28 27 26 24 23 20 20 21 14 18 22 19 21 22 22 21 20 21 20 20 20 21 22 22 24 23 23
21 22 23 25 26 27 29 30 30 30 29 29 28 28 26 26 28 25 25 23 20 17 21 18 17 15 17 17 18 22 17 19 20 17 17 17 20 18 19 19 21 21 22
24 25 26 27 27 29 29 30 30 30 29 29 29 28 26 25 26 27 24 25 23 22 19 18 17 5 4 15 22 21 18 13 18 10 9 12 14 15 15 15 16 17 17
25 27 27 27 30 29 29 30 32 31 30 29 30 29 26 23 25 25 24 25 26 27 28 28 17 13 19 23 21 20 17 16 15 11 5 1 3 10 14 13 14 15 14

GFSMW_sfc_dewp_036.txt.gz
Dewpoint
45 47 49 51 52 54 56 58 58 58 54 53 49 47 46 43 43 42 42 42 42 40 39 39 39 40 40 41 41 42 42 42 41 41 39 41 42 37 35 41 42 39 38
44 47 48 51 51 52 52 50 46 45 45 45 45 44 43 43 42 42 41 41 40 39 38 39 40 41 41 42 42 41 41 42 40 37 37 32 33 35 34 34 38 37 37
45 48 48 47 46 43 42 42 43 43 44 45 45 45 45 44 42 41 40 40 39 39 39 40 41 42 42 42 41 40 39 38 39 39 36 32 30 34 34 34 35 36 35
45 46 44 43 42 43 43 43 43 43 44 45 43 42 41 41 42 41 40 38 38 39 41 41 41 41 41 40 40 40 39 38 36 37 38 37 37 32 30 33 33 35 34
45 44 43 42 43 43 43 43 44 45 45 45 44 43 43 43 42 39 37 37 37 39 41 41 41 40 41 40 39 39 38 38 37 36 36 35 34 34 34 31 30 32 34
43 43 43 43 43 44 43 43 44 44 45 44 44 43 43 41 38 37 37 37 37 37 39 40 40 40 40 39 39 38 37 37 36 36 36 35 35 33 34 32 32 34 35
43 43 44 43 44 43 43 43 43 43 43 43 43 43 42 40 38 37 36 35 36 36 36 37 39 40 39 39 38 37 37 36 35 34 35 35 35 35 36 34 33 33 32
42 43 45 44 43 42 42 42 43 42 41 41 41 41 40 38 37 36 37 37 36 36 36 37 39 38 38 38 38 37 37 36 35 34 34 34 35 35 35 33 31 26 29
40 40 42 41 41 40 39 41 41 42 41 39 40 40 39 38 37 37 36 37 37 37 37 37 37 38 37 38 38 37 37 36 35 34 34 33 34 30 31 30 33 30 23
39 39 39 39 40 38 38 39 40 38 39 36 35 34 35 36 37 37 36 37 37 37 36 37 37 37 38 38 38 37 36 35 35 34 31 27 28 27 28 27 28 29 28
37 36 36 36 36 35 35 37 36 34 34 33 34 34 34 36 37 37 37 37 37 36 36 36 36 36 34 36 36 35 33 33 28 25 25 25 25 25 25 25 25 25 25
36 36 36 35 35 34 34 36 36 36 34 33 33 32 32 34 35 36 36 36 35 35 35 35 34 32 32 32 30 29 28 25 24 24 24 24 23 24 24 23 23 23 24
36 35 34 34 35 35 33 32 33 34 33 32 31 30 32 32 32 32 34 34 34 35 35 35 35 36 36 33 30 27 26 24 24 24 25 25 25 23 22 22 23 23 24
35 35 35 35 35 35 31 29 29 30 29 29 31 32 32 33 33 33 33 34 35 35 35 36 37 36 33 29 27 24 23 24 25 25 25 25 25 23 22 22 22 21 23
36 35 34 34 32 28 27 26 26 27 28 30 31 32 34 34 34 34 35 35 35 36 37 38 37 33 28 24 23 24 25 25 25 25 25 25 26 27 26 24 23 23 21
35 34 32 29 26 25 24 24 24 25 27 30 31 33 34 34 33 34 34 34 34 34 37 30 29 27 24 28 30 31 29 28 26 24 24 24 23 24 24 23 23 22 21
34 34 27 25 24 24 23 21 23 25 25 29 31 33 33 32 33 34 34 32 30 32 32 31 29 27 27 30 30 28 24 23 22 21 20 19 18 21 20 22 23 23 25
34 29 25 23 23 22 21 22 22 23 26 28 30 30 30 31 33 32 32 31 33 35 35 31 26 25 26 29 27 26 23 21 21 19 19 19 19 20 21 23 24 24 23
32 23 22 21 20 19 21 22 22 21 25 28 29 29 30 31 31 30 31 32 34 33 28 26 25 23 22 23 23 22 21 21 19 19 19 19 21 23 27 25 24 23 23
19 18 19 19 20 20 22 22 21 24 27 28 28 30 29 28 28 29 33 32 33 32 26 24 25 23 21 22 21 21 20 14 20 21 20 21 21 23 23 26 24 22 22
19 19 20 20 21 22 23 23 24 25 27 28 29 29 28 28 29 31 32 33 31 28 25 23 24 22 22 20 21 21 20 20 21 20 20 21 22 21 23 24 24 24 24
19 20 21 22 23 24 25 25 26 27 28 29 29 28 29 28 29 30 33 27 26 24 24 11 16 21 21 20 21 22 22 21 18 20 20 21 19 20 20 21 24 23 23
19 21 22 23 26 26 27 27 28 29 29 29 28 28 29 26 27 27 26 25 24 21 19 21 15 18 21 20 21 22 23 20 17 19 18 18 18 18 19 18 20 21 20
22 23 24 25 26 28 29 29 29 30 29 29 29 29 28 26 27 27 25 24 22 18 21 18 18 16 18 17 18 21 19 18 18 16 15 14 18 15 16 16 17 18 18
23 25 26 26 27 29 29 29 29 30 29 30 29 30 30 27 26 26 26 26 25 22 20 19 18 7 7 15 20 20 17 11 16 8 7 10 10 12 13 13 14 15 14
25 26 27 27 29 29 28 28 29 29 30 29 29 30 30 27 25 25 25 27 26 27 28 28 20 14 20 23 23 19 18 16 15 9 3 -3 -3 3 11 11 11 11 10

GFSMW_sfc_dewp_042.txt.gz
Dewpoint
50 54 57 58 58 60 61 60 60 60 60 58 53 48 46 46 46 45 46 46 45 46 47 42 40 38 37 39 39 37 36 34 37 36 29 29 31 40 37 34 34 34 35
52 55 57 58 58 59 60 60 59 60 58 54 50 48 47 46 45 45 46 45 46 44 40 40 37 38 36 39 40 39 36 33 34 36 33 25 25 26 35 33 33 36 34
53 55 56 58 59 59 59 57 56 55 52 50 48 48 48 46 44 44 43 44 43 41 40 40 39 39 38 36 39 38 38 34 33 36 34 30 25 27 29 32 30 34 32
50 50 49 52 54 55 54 50 50 50 50 50 47 47 44 43 46 47 44 43 42 39 38 39 40 41 40 40 39 35 39 37 34 32 30 34 33 31 30 30 29 28 28
46 42 42 44 44 48 49 49 48 47 48 49 48 48 47 47 46 45 45 44 42 40 37 39 41 41 40 41 42 41 40 37 35 34 32 33 30 31 31 30 25 24 25
43 40 42 43 44 49 49 49 47 47 48 49 49 49 47 44 43 42 40 38 37 37 38 38 40 41 41 40 40 41 40 39 38 36 35 33 30 27 28 30 28 26 25
42 42 42 42 44 47 48 48 47 46 48 48 48 47 45 42 39 37 35 36 34 35 37 40 40 38 39 40 40 39 39 38 37 37 34 34 34 33 33 32 29 23 22
42 42 42 43 45 46 47 46 46 45 46 45 44 43 39 38 37 38 39 38 38 39 41 41 40 38 37 38 39 39 39 39 38 38 35 32 30 30 29 27 25 24 21
42 42 44 45 46 47 48 48 46 44 43 43 43 42 42 40 39 40 41 40 40 36 34 34 33 33 35 37 39 39 38 37 37 37 35 30 29 28 26 26 25 28 24
42 43 44 46 46 46 45 47 44 42 41 40 40 38 38 38 40 41 39 35 32 30 31 32 32 32 34 35 37 36 34 34 35 31 31 29 26 27 26 23 23 24 25
43 44 44 45 44 42 42 42 41 39 38 37 37 38 37 36 37 33 30 30 31 30 30 31 33 33 33 35 37 36 34 35 34 31 30 29 28 27 26 24 23 22 21
42 42 42 41 39 38 39 39 39 38 37 36 35 32 32 31 30 28 29 32 31 32 31 31 32 33 34 37 37 37 37 33 29 29 28 27 24 28 25 23 23 22 21
40 39 39 38 37 37 37 36 36 34 33 30 28 29 29 28 28 29 32 32 32 31 32 32 33 33 35 34 36 36 31 29 28 28 28 28 26 25 23 23 21 20 17
39 38 37 37 35 34 34 32 34 31 28 24 24 26 28 30 31 32 32 33 32 33 32 33 33 36 35 32 31 28 28 29 28 29 28 26 25 23 22 19 20 18 18
37 37 36 36 35 33 33 33 30 26 25 23 22 25 31 33 32 32 33 33 33 33 32 32 33 34 30 25 30 29 29 28 26 25 21 21 20 21 21 19 19 19 18
37 36 36 34 32 32 30 27 24 24 26 24 24 27 32 31 31 32 33 32 32 32 32 31 31 31 28 32 29 28 26 24 21 19 18 18 19 19 21 22 22 22 20
37 36 34 32 30 29 25 22 23 26 25 24 24 29 30 29 30 30 30 31 32 32 32 32 33 32 31 28 27 25 23 22 20 18 17 15 13 20 18 20 22 25 27
37 35 32 29 26 24 23 24 23 24 24 23 25 27 28 28 29 30 30 31 31 32 33 33 31 30 27 25 23 23 23 22 21 19 19 19 18 18 21 20 21 21 21
37 34 30 26 24 22 23 22 22 21 21 23 25 26 28 28 28 29 30 31 31 31 32 31 31 29 27 23 21 22 24 23 22 20 19 19 18 20 22 21 22 21 18
34 30 25 23 22 23 24 22 20 20 22 24 26 27 28 28 28 29 29 30 30 29 30 31 30 26 27 23 21 22 25 28 24 21 19 21 18 19 21 22 22 22 19
28 24 22 23 23 24 24 21 18 21 24 27 28 27 27 28 29 28 28 28 29 30 30 31 30 28 28 26 22 21 25 25 23 21 19 19 19 18 19 19 21 21 19
21 24 23 22 23 23 23 17 18 21 27 28 27 27 28 28 27 29 28 27 28 27 28 33 31 29 28 26 24 22 22 23 25 22 21 22 18 18 17 17 17 17 20
22 22 22 23 24 23 23 22 23 26 26 27 27 29 28 27 26 28 27 25 25 26 27 26 27 26 27 26 26 24 22 24 24 23 21 18 17 16 15 14 15 17 19
27 30 24 21 21 23 25 25 26 27 25 26 28 28 28 26 26 26 26 25 26 26 24 24 25 25 25 26 26 26 25 24 23 22 20 19 18 17 16 16 15 17 16
28 25 22 22 21 23 25 25 25 27 26 27 27 28 28 28 27 26 26 25 26 26 25 24 26 29 28 27 26 25 25 26 23 22 22 20 18 16 14 16 15 16 13
25 24 25 24 23 24 24 25 26 26 27 27 27 28 29 28 27 27 25 28 27 28 29 28 28 30 28 28 26 24 24 22 18 20 22 22 22 19 15 16 15 16 13

GFSMW_sfc_dewp_045.txt.gz
Dewpoint
46 51 52 53 51 57 59 60 60 60 60 59 56 55 51 48 47 46 47 47 47 47 48 43 42 41 39 39 41 39 39 36 36 32 32 33 36 37 33 34 35 34 34
48 51 54 56 57 59 60 59 58 59 59 56 53 51 48 46 46 46 48 47 47 45 42 43 40 41 38 39 40 41 37 36 37 33 32 30 30 29 31 32 32 37 31
49 53 55 57 57 57 59 58 58 56 53 50 48 48 47 47 45 46 45 46 45 42 42 41 41 41 39 37 40 40 38 34 35 37 32 29 28 29 30 33 32 36 34
50 53 55 57 59 59 58 56 52 49 48 48 46 47 43 43 47 46 45 44 43 41 39 39 40 41 40 40 39 36 39 39 34 34 31 36 33 29 29 29 28 30 28
50 50 51 52 52 54 51 49 48 47 48 48 47 47 46 47 46 46 46 45 44 40 37 39 40 40 39 40 41 41 41 39 38 34 33 34 33 33 31 27 27 28 27
47 44 46 46 47 51 50 49 47 46 48 49 49 48 48 44 43 43 42 39 37 35 36 36 39 40 39 38 38 40 39 40 39 36 36 35 33 30 31 30 31 30 28
44 41 41 40 44 47 49 48 46 46 48 49 49 48 46 43 40 39 37 35 34 34 37 39 39 37 37 36 37 37 39 39 38 38 39 34 33 33 32 33 32 28 24
43 41 41 41 44 47 48 48 46 46 48 48 46 45 42 39 38 36 37 37 37 37 39 39 37 34 33 33 36 36 37 39 41 39 37 34 34 32 30 28 26 26 23
42 40 42 43 44 46 48 49 46 46 46 45 44 42 41 38 37 38 39 38 39 35 33 33 32 32 32 33 34 35 36 38 38 37 37 36 32 30 30 28 29 30 27
41 41 42 44 45 46 48 50 47 45 43 42 41 39 37 37 38 39 38 36 33 31 30 31 31 31 32 33 33 33 34 37 35 33 35 33 30 30 30 29 27 27 24
41 42 42 45 46 47 47 48 45 43 40 39 39 40 38 36 37 35 31 30 31 30 30 30 30 30 31 31 33 35 34 36 33 35 33 32 31 30 30 28 26 24 23
41 42 43 45 46 45 44 44 42 39 38 38 40 37 36 34 32 29 28 31 31 32 31 30 30 30 30 31 34 35 33 34 33 31 31 29 26 28 27 24 25 23 22
40 42 43 44 43 42 42 41 39 38 37 37 36 33 31 30 28 27 30 30 31 31 31 31 32 31 33 34 35 33 33 33 30 30 29 28 26 24 23 23 22 21 16
40 42 42 42 41 40 40 38 37 38 35 32 27 27 28 28 28 30 31 31 31 31 31 32 31 33 34 32 32 32 30 30 30 30 28 24 23 22 22 19 20 18 18
41 40 40 40 39 38 37 35 36 34 32 26 24 25 26 30 31 31 31 31 32 31 31 31 30 31 30 27 30 30 30 29 27 24 21 22 21 20 21 18 19 19 18
39 39 39 38 38 36 34 35 33 30 26 25 24 23 26 28 30 30 31 31 30 31 31 31 31 31 29 31 29 27 27 24 22 21 21 19 23 22 24 25 22 22 19
38 39 38 38 37 35 33 30 29 26 26 24 22 22 27 27 28 27 28 29 30 31 31 31 31 31 32 29 27 25 24 23 23 22 21 18 14 22 20 22 23 23 25
38 39 38 37 34 32 28 28 26 27 26 22 20 22 25 26 27 27 28 29 30 31 32 32 32 31 31 28 24 23 24 24 23 23 21 20 20 21 21 19 19 19 20
39 39 38 34 31 27 25 29 26 23 21 19 20 22 24 25 26 27 28 29 30 31 31 30 32 31 31 26 23 22 24 24 24 22 21 20 19 22 21 19 20 19 18
38 37 34 30 27 26 26 27 25 21 20 19 22 23 25 26 26 28 29 29 29 28 30 30 30 32 31 27 24 22 26 27 25 23 21 23 19 19 19 21 20 19 16
36 33 28 26 25 28 31 27 20 16 19 23 24 25 25 25 27 28 28 28 28 29 33 32 31 31 31 30 25 23 25 26 24 23 21 21 20 19 18 18 20 21 17
30 26 25 25 30 28 23 17 13 18 22 25 25 24 25 25 26 28 28 28 28 30 30 34 32 30 31 30 27 25 24 23 25 24 23 24 21 19 18 18 17 17 19
24 25 28 31 28 25 23 21 21 23 24 24 24 25 27 27 27 26 26 27 27 28 30 29 29 28 29 30 29 27 25 23 25 25 24 21 20 18 18 15 17 18 19
30 33 32 28 24 21 22 24 25 26 24 25 26 27 27 27 27 26 25 27 28 29 27 28 27 26 26 28 28 30 28 25 27 26 25 23 22 21 21 20 19 19 19
31 27 24 25 26 22 23 24 24 26 25 26 26 27 28 29 28 26 27 28 29 30 28 29 27 32 30 29 29 28 28 29 27 24 24 23 21 21 19 19 17 18 16
29 31 28 25 22 22 23 23 23 24 26 26 27 29 30 29 27 26 27 29 28 29 28 28 29 32 28 28 28 27 26 24 24 22 23 24 25 23 20 19 18 18 17

GFSMW_sfc_dewp_048.txt.gz
Dewpoint
42 48 50 51 53 60 60 61 60 60 60 60 57 55 54 51 51 50 51 52 50 50 48 48 45 45 44 43 42 42 41 41 40 38 35 36 35 37 35 36 36 35 34
45 50 52 54 56 59 60 60 60 59 59 60 56 55 52 50 50 51 51 51 50 47 47 45 45 45 43 43 43 42 42 40 41 37 35 32 32 35 33 35 33 33 35
47 50 52 55 60 60 60 60 59 59 59 57 54 53 52 51 49 50 50 49 48 46 44 44 45 44 43 42 43 42 41 38 39 39 37 33 31 33 34 33 32 33 34
47 50 53 57 58 59 59 59 59 58 55 53 51 50 47 46 48 48 48 48 47 44 43 42 42 43 44 43 42 39 42 40 38 38 36 37 36 32 31 32 32 32 31
47 51 55 57 57 59 60 59 57 52 51 52 51 51 51 49 50 49 50 49 49 47 42 41 42 42 43 43 42 41 40 40 38 37 37 36 36 35 33 30 30 31 32
50 50 55 56 57 59 58 54 50 48 51 51 52 52 51 49 48 47 48 47 47 43 42 41 43 43 42 41 40 40 39 39 39 39 38 38 36 34 33 31 30 30 31
49 49 50 50 51 51 52 52 49 48 50 52 52 52 50 47 45 43 43 41 41 41 42 43 42 41 39 38 38 38 38 39 38 39 39 40 37 36 34 33 31 30 28
47 45 46 46 48 50 50 50 48 48 50 52 51 50 49 46 43 41 42 42 41 42 42 40 38 37 37 37 37 37 38 37 39 38 39 38 36 36 34 31 29 27 27
45 42 43 45 46 49 51 52 49 48 50 50 50 47 45 42 41 41 42 42 42 36 38 36 36 36 36 37 37 36 37 38 38 37 36 36 36 36 34 32 31 30 26
45 42 42 45 46 48 49 52 51 47 48 47 47 44 43 41 43 41 41 39 36 35 35 35 35 35 35 35 36 36 37 36 37 36 35 35 35 33 33 31 30 29 28
44 43 42 44 46 48 49 51 50 46 45 45 44 43 40 42 39 40 36 33 33 34 34 34 34 34 34 34 34 36 35 34 34 35 35 34 33 32 31 31 30 28 26
43 42 43 45 45 48 48 50 50 45 43 43 42 41 42 41 38 36 32 33 33 35 34 34 34 34 34 35 36 35 35 35 35 34 32 31 28 29 30 27 25 24 22
42 42 43 45 46 47 47 47 46 44 40 38 40 41 41 36 34 32 32 34 34 34 34 34 35 34 35 34 34 34 34 35 32 31 31 30 29 25 25 23 21 20 19
40 41 42 45 46 46 45 44 43 41 39 39 38 36 35 33 32 33 34 35 35 35 34 35 34 34 32 31 32 33 32 32 31 31 31 26 24 22 20 18 19 18 19
36 39 43 44 44 44 44 42 40 40 39 37 34 34 33 33 34 35 35 35 36 34 34 34 34 34 31 28 30 30 30 29 28 28 25 23 25 25 21 17 19 20 20
34 40 41 42 42 41 41 38 38 38 38 34 32 32 30 31 34 34 35 35 34 33 34 33 33 33 29 31 29 27 26 26 25 24 23 22 25 25 25 27 23 23 20
33 39 40 41 42 40 38 36 36 35 31 33 32 29 29 31 33 31 31 32 33 34 34 33 33 33 33 31 27 25 24 25 25 24 23 21 17 25 22 23 22 20 22
35 40 41 41 40 38 36 36 31 31 33 32 27 25 28 30 31 31 31 32 33 33 33 32 33 33 32 32 28 24 23 25 25 25 23 22 21 22 21 20 19 19 20
39 41 41 40 36 34 31 29 30 30 28 24 23 25 28 28 29 29 31 32 33 32 31 31 32 32 32 31 28 24 25 26 25 25 24 23 20 21 21 20 20 19 18
39 39 36 34 33 29 30 29 27 26 25 23 25 27 28 28 28 30 31 32 31 30 30 31 33 32 32 33 29 26 27 26 26 25 23 23 20 20 20 18 19 18 18
38 34 32 30 30 33 31 29 28 24 23 26 28 28 28 27 29 30 31 31 31 30 30 31 31 31 32 33 31 27 26 26 26 25 24 24 22 21 20 18 20 19 19
29 28 28 30 30 27 27 22 25 27 28 27 28 27 27 27 26 31 31 30 29 29 29 30 31 32 31 32 32 29 27 26 24 24 25 25 23 22 20 19 19 19 20
27 31 31 31 31 29 27 22 25 24 28 28 27 27 28 28 28 30 30 29 27 29 29 29 29 29 31 29 32 30 29 27 24 25 26 25 23 23 22 22 19 19 20
32 32 30 29 27 25 29 30 28 29 25 27 27 28 29 29 29 28 28 28 30 29 29 29 28 29 29 29 30 29 28 27 26 25 26 25 23 20 20 20 22 22 21
29 28 29 31 30 31 28 24 24 27 26 27 28 29 30 31 31 30 29 29 30 31 29 29 29 29 30 29 29 28 31 31 29 22 22 22 23 22 22 22 21 21 20
32 34 33 30 25 22 22 24 25 25 27 27 28 31 32 32 30 29 29 30 30 31 30 30 29 29 30 28 30 30 29 27 26 21 20 20 20 23 21 18 19 19 18

GFSMW_sfc_dewp_054.txt.gz
Dewpoint
45 47 49 51 52 57 58 57 57 56 56 56 56 55 52 51 49 48 49 49 49 49 46 44 42 41 42 41 40 39 39 38 39 36 36 36 35 34 34 34 33 33 33
42 48 50 51 53 58 57 57 56 56 55 57 56 54 52 49 48 48 49 49 47 45 43 42 41 40 40 40 39 39 39 38 38 36 35 32 33 34 34 34 33 32 33
41 48 52 53 56 58 58 57 57 56 56 58 56 52 49 48 48 48 48 46 45 45 43 42 42 40 40 39 39 38 37 37 37 37 34 31 30 33 33 33 33 32 32
42 50 53 56 57 58 59 58 58 57 57 59 56 50 47 46 47 47 48 46 45 44 43 42 41 41 41 40 40 39 38 36 34 36 36 35 35 32 31 33 33 33 32
43 51 55 57 58 59 59 59 58 58 58 58 55 50 47 47 47 48 47 46 44 43 41 41 41 40 41 38 35 34 34 36 35 35 35 35 35 34 32 31 31 32 32
46 50 57 58 59 59 59 59 58 58 58 57 52 50 47 47 47 48 46 46 46 43 42 40 40 39 36 34 34 34 33 33 34 35 36 36 34 34 34 33 33 33 32
49 54 57 58 58 58 58 58 58 57 53 51 50 49 47 47 47 47 46 44 41 41 40 39 38 36 35 35 34 33 32 32 33 34 36 37 37 37 36 34 33 32 29
51 54 56 57 57 57 57 58 57 52 49 49 48 47 45 45 44 43 42 42 42 39 36 35 35 34 35 34 33 33 34 35 35 34 34 35 36 36 36 34 30 29 28
54 55 55 56 56 56 56 55 51 48 49 49 46 44 42 41 42 43 41 40 39 35 36 34 34 34 33 33 33 34 34 34 33 33 34 34 37 37 35 34 34 34 29
49 52 53 54 53 52 49 48 49 48 49 46 43 41 41 41 43 44 43 39 39 36 36 34 33 33 33 34 36 35 34 33 34 34 34 33 34 34 33 32 32 31 30
46 48 50 51 50 48 48 47 47 48 48 44 41 41 42 42 42 42 39 36 37 35 34 34 32 33 33 36 34 33 34 34 34 34 33 33 31 31 30 28 25 22 21
44 45 47 48 47 47 47 48 47 48 44 40 41 43 42 44 43 40 38 38 35 36 35 33 32 33 33 35 33 32 32 33 33 33 31 31 29 27 25 22 20 19 19
44 43 44 46 47 47 47 48 44 40 40 42 43 43 41 43 42 40 38 38 34 33 32 32 33 33 34 32 32 33 34 33 32 31 31 31 30 24 22 20 19 19 18
44 42 42 44 45 47 46 43 43 43 44 43 42 42 43 43 38 36 35 34 34 32 32 33 34 35 32 31 31 31 30 30 29 28 27 26 23 20 18 18 17 18 19
43 44 44 47 48 48 45 43 44 43 44 41 37 40 36 35 36 36 34 34 33 32 34 34 34 33 31 29 30 29 28 27 26 26 25 24 25 28 22 18 19 19 19
39 42 48 48 48 45 43 43 43 41 40 33 31 33 35 35 35 34 33 32 33 33 33 33 34 32 29 32 32 29 26 25 24 23 25 24 24 25 27 26 24 22 18
43 45 46 47 45 43 43 41 38 34 32 32 33 35 36 34 33 31 31 31 31 31 31 33 32 32 32 33 33 31 24 23 23 23 24 22 22 25 22 22 20 19 20
40 39 38 37 37 37 33 33 33 34 31 30 31 31 32 32 33 34 32 31 31 31 32 32 32 31 31 33 34 33 25 23 23 24 25 23 22 22 21 20 19 18 18
32 30 30 30 31 31 31 28 26 28 29 31 31 32 35 36 34 31 31 31 30 31 31 31 31 30 30 32 34 32 25 23 24 26 26 25 22 23 24 21 20 18 17
30 29 28 28 28 28 28 28 27 28 29 30 31 37 36 32 31 31 31 30 30 30 29 29 30 31 30 32 34 33 26 27 28 27 25 26 22 24 22 20 19 16 16
26 26 25 25 26 28 27 27 28 28 31 36 37 33 32 31 31 29 29 29 29 29 28 29 29 29 30 29 32 34 30 29 27 25 25 24 25 24 24 24 21 17 18
27 26 25 26 27 28 27 27 27 29 31 30 29 29 29 28 27 29 28 29 29 28 28 24 27 27 29 31 32 34 33 31 27 26 25 25 26 25 26 25 24 24 23
29 28 26 26 29 30 29 28 30 28 29 28 28 27 28 28 27 28 28 27 27 25 26 27 27 26 27 28 32 33 33 33 30 27 26 26 26 26 26 27 26 23 20
29 29 29 30 30 31 31 31 31 31 28 27 26 27 27 27 28 28 29 28 27 26 27 27 26 26 27 27 27 28 29 32 32 27 28 24 25 21 22 22 23 23 20
32 32 32 31 31 31 29 25 24 26 25 26 27 27 28 28 28 29 29 29 29 28 28 27 26 24 24 26 28 29 27 28 29 28 25 25 24 22 22 22 22 22 21
33 32 30 25 24 24 26 27 29 29 27 27 27 27 27 27 27 28 28 31 30 30 31 31 28 28 30 31 31 31 31 32 31 27 24 24 21 21 21 20 20 19 18

GFSMW_sfc_dewp_057.txt.gz
Dewpoint
55 55 56 52 53 56 57 56 56 55 55 55 53 52 51 50 49 49 49 49 49 47 43 43 41 41 40 39 38 39 38 37 38 35 35 36 34 34 34 34 33 32 32
51 52 51 51 53 56 57 56 56 55 55 54 55 54 51 50 48 48 49 49 49 46 43 42 40 41 41 39 39 38 38 37 38 34 34 30 32 34 35 33 33 32 32
46 48 48 50 53 56 56 56 56 55 54 56 54 51 49 48 47 47 47 48 46 44 43 42 41 40 40 39 38 38 36 35 36 36 32 29 28 32 33 33 33 33 32
43 46 48 50 52 56 57 57 56 56 56 57 54 51 48 46 47 47 47 46 46 44 43 42 41 40 40 40 39 38 37 35 32 35 36 35 34 32 30 33 33 33 33
41 46 48 50 53 56 57 57 57 56 57 57 56 52 48 47 47 47 47 46 44 44 42 42 41 40 41 37 35 34 34 35 34 34 34 34 34 33 32 29 31 33 34
40 46 50 52 55 58 58 57 57 57 57 58 55 52 49 47 47 47 46 46 44 42 41 41 40 38 35 34 34 33 32 32 33 34 35 34 34 33 32 30 31 31 33
44 50 54 55 57 57 58 58 57 57 57 57 55 52 49 47 47 47 46 44 41 41 40 39 39 40 35 35 35 33 32 32 32 33 35 36 36 36 35 33 32 31 30
47 54 55 56 57 58 58 58 58 57 57 56 54 51 49 48 47 47 45 42 41 38 39 42 38 37 36 34 34 33 33 35 34 33 33 34 35 36 36 34 31 28 30
49 54 56 57 57 58 58 58 57 57 53 52 50 47 48 45 43 43 42 40 41 43 43 37 37 36 34 34 34 34 34 34 33 32 33 33 34 35 35 34 34 34 30
51 54 55 56 57 57 57 57 56 54 50 49 47 44 43 42 42 42 41 42 42 42 39 37 38 34 34 34 35 35 34 33 33 33 33 33 33 33 33 32 33 35 33
52 54 55 56 56 56 54 55 52 50 48 45 42 41 42 42 42 40 42 43 42 40 40 40 38 35 33 35 34 33 33 32 33 33 33 33 32 31 30 29 26 23 22
50 52 54 54 53 52 51 51 51 49 47 41 41 42 42 43 44 43 41 42 42 42 39 38 34 33 33 35 33 32 31 32 32 33 32 31 30 28 26 24 21 20 19
46 49 50 52 52 51 50 47 45 41 42 42 42 44 46 45 42 40 41 40 40 39 35 33 33 33 33 33 31 31 32 33 33 32 31 31 30 29 24 21 20 19 18
45 44 46 49 49 49 48 44 42 41 42 43 44 44 44 44 43 41 39 38 36 34 33 34 33 34 33 31 31 32 31 30 30 30 27 26 26 24 20 18 18 17 18
45 43 43 46 48 47 46 44 44 45 46 45 45 46 44 43 38 35 35 35 35 33 33 34 34 33 32 30 30 29 29 28 27 27 25 25 25 26 24 19 18 19 19
41 44 46 47 48 45 44 45 46 46 46 44 40 38 37 36 37 37 35 34 33 33 34 32 33 32 30 32 33 31 28 27 26 24 23 24 27 26 29 28 25 22 19
45 46 47 47 45 44 44 44 41 36 35 37 36 37 37 35 34 32 34 34 34 33 31 32 32 32 31 33 34 33 29 26 25 23 23 24 22 26 25 28 25 23 22
38 38 39 39 38 35 33 33 33 34 34 33 32 32 34 34 37 39 39 35 32 30 30 31 32 31 31 33 34 34 30 26 24 23 24 25 23 23 22 20 20 19 19
30 30 31 32 32 31 31 29 31 31 29 30 33 37 39 39 39 36 32 31 30 29 30 31 31 30 30 32 33 33 29 27 25 24 25 27 26 26 27 22 21 20 19
28 28 28 28 27 26 27 27 27 28 30 32 37 39 38 36 32 31 31 30 29 29 29 29 29 30 29 31 33 33 28 27 27 27 28 30 27 25 26 22 20 19 19
26 27 27 27 27 27 27 27 28 29 34 37 36 34 32 31 30 28 28 28 28 28 28 28 28 28 29 29 33 33 29 29 29 28 27 26 27 27 26 25 21 19 20
25 26 26 27 29 29 28 28 29 31 31 30 29 28 28 27 27 28 27 27 28 27 27 24 26 28 28 30 31 33 33 31 30 28 28 27 28 28 27 25 26 26 23
26 26 29 30 30 30 29 29 29 28 28 28 26 26 27 27 27 27 27 27 27 26 26 27 27 27 28 28 30 32 32 33 31 30 30 29 28 30 27 28 28 25 22
28 30 29 30 31 32 30 29 28 29 28 27 26 27 27 27 27 28 28 27 26 26 27 27 27 27 28 27 27 27 28 31 32 31 31 29 28 27 26 24 26 23 21
31 31 30 28 25 26 27 29 30 29 28 28 28 28 28 28 28 28 28 28 28 29 28 29 28 28 27 27 28 28 26 26 28 28 29 26 26 25 24 23 23 22 20
29 26 26 26 26 28 30 30 31 30 29 27 27 28 28 27 27 27 27 29 30 30 31 31 30 30 31 30 31 32 33 31 30 28 27 24 24 24 23 22 22 20 18

GFSMW_sfc_dewp_060.txt.gz
Dewpoint
53 54 57 56 55 55 57 57 56 55 56 55 53 52 52 51 51 51 50 49 48 45 44 43 41 42 40 39 38 39 38 37 38 35 34 35 35 35 35 35 34 34 34
55 54 55 55 54 55 57 56 56 55 56 56 53 53 51 50 49 49 49 49 47 44 43 41 41 41 40 39 39 39 38 37 37 34 33 29 31 34 35 34 35 34 34
54 54 54 53 53 55 56 56 56 56 56 55 54 50 49 49 47 47 48 48 48 44 42 41 41 41 40 39 38 37 36 34 35 36 31 25 25 32 34 34 34 35 34
51 52 52 51 51 54 56 56 56 56 55 55 53 50 50 48 47 48 47 47 46 44 42 41 41 40 41 39 38 37 37 33 31 34 36 35 33 31 30 33 33 34 33
47 48 50 50 51 54 55 56 56 56 55 55 54 52 50 50 49 47 47 46 45 44 42 41 41 41 40 38 37 36 36 35 33 33 33 33 33 33 32 30 32 33 35
43 44 47 48 51 55 55 56 56 56 56 56 55 53 53 50 48 47 47 45 43 42 41 41 40 37 37 37 36 34 34 33 33 34 34 34 33 32 32 31 31 31 33
39 41 46 49 53 55 56 56 56 56 56 56 56 55 53 51 48 46 46 44 41 41 40 37 40 41 40 39 36 34 33 33 33 33 34 36 36 36 35 33 33 31 31
38 41 46 50 54 55 56 57 57 57 57 57 57 56 54 49 47 47 47 43 41 39 40 43 42 41 40 37 36 36 34 35 34 33 33 33 34 35 35 34 31 31 30
40 43 48 53 55 56 56 57 57 57 57 57 56 54 52 50 47 45 43 41 40 42 43 40 40 41 38 37 38 34 33 34 33 32 32 33 34 34 35 35 34 35 29
46 49 52 55 56 56 57 58 57 57 57 56 54 53 50 47 45 44 42 40 43 43 41 42 41 39 38 37 35 34 34 33 33 33 33 33 33 33 33 33 34 35 35
48 51 53 55 56 56 57 57 57 57 53 52 50 47 44 43 43 42 42 43 43 42 43 40 41 38 37 34 35 34 34 33 33 33 33 33 33 32 31 31 30 28 29
50 51 53 54 55 55 55 55 55 54 51 44 43 43 42 42 43 43 44 44 42 44 41 42 39 37 35 34 34 33 32 32 31 32 33 32 31 30 28 26 24 22 21
48 51 52 53 54 55 53 52 51 49 46 44 43 44 44 43 43 44 43 43 43 42 40 39 38 36 34 33 34 33 32 32 33 33 32 31 30 29 28 24 22 20 18
47 47 49 51 51 51 49 47 45 47 46 45 46 45 45 44 43 43 42 41 40 39 38 37 36 35 34 33 33 32 32 32 31 31 31 29 26 26 26 23 21 19 18
45 45 45 48 48 48 46 45 44 45 46 46 45 45 46 45 43 39 40 41 40 37 35 35 35 34 33 32 32 31 30 29 28 28 27 27 26 28 24 20 20 18 18
42 45 43 46 48 46 46 45 45 45 45 44 44 44 43 40 39 39 39 37 34 34 36 35 34 34 32 33 34 31 29 28 28 27 26 25 27 28 31 32 28 21 19
44 45 46 45 45 44 45 44 43 42 41 39 39 39 38 36 36 35 36 38 39 38 36 34 33 32 32 33 34 34 30 28 28 26 25 23 23 27 24 27 29 28 26
37 38 39 37 36 35 35 35 36 36 36 34 33 33 34 37 39 39 40 40 37 33 31 31 30 31 31 33 34 34 32 30 28 26 25 24 24 24 24 23 23 21 20
30 30 31 32 32 31 32 31 31 31 32 36 38 39 39 38 38 39 38 33 30 30 29 29 29 30 30 33 33 33 30 30 29 28 26 25 25 26 28 29 23 21 19
28 28 27 27 27 28 29 28 29 32 35 38 38 39 39 40 35 32 31 30 28 28 29 28 28 30 29 31 33 33 30 29 29 28 27 29 28 29 30 26 23 21 20
27 27 27 26 27 27 27 28 31 33 37 37 37 34 32 30 29 28 27 27 27 27 27 28 28 28 29 29 32 33 31 30 29 28 29 28 30 31 30 28 23 21 21
26 27 28 29 29 29 29 29 30 30 30 29 28 28 28 27 27 27 27 27 27 26 27 25 27 28 28 30 31 32 33 31 30 29 29 29 30 30 30 28 27 26 24
29 29 29 29 30 29 30 30 30 29 29 28 27 27 27 27 27 27 27 27 26 26 26 27 27 28 29 28 30 31 31 31 31 30 31 30 30 30 30 30 28 28 26
29 29 30 27 26 28 29 30 29 28 28 28 28 28 27 28 28 27 28 27 25 25 27 27 27 27 28 28 28 28 28 29 32 31 32 31 30 29 29 28 30 29 26
30 27 25 26 29 29 29 30 29 27 27 26 26 26 26 26 26 26 26 26 26 27 27 27 27 27 26 27 30 30 30 30 29 30 31 30 29 28 26 26 26 26 25
26 26 26 28 28 25 24 25 26 24 23 22 24 25 24 23 22 22 21 24 25 26 27 27 26 26 27 28 29 29 29 31 32 30 28 27 26 25 24 24 24 24 24

GFSMW_sfc_dewp_063.txt.gz
Dewpoint
53 54 55 56 55 58 59 60 60 60 59 58 58 58 59 59 58 58 56 54 51 51 49 46 45 45 43 43 44 43 42 40 42 37 36 38 39 39 38 38 37 36 35
53 54 55 57 56 56 58 59 59 58 58 58 58 58 58 56 56 55 55 53 51 49 48 46 44 45 43 44 44 44 41 41 41 35 34 29 32 36 37 37 36 38 37
53 54 54 56 56 56 57 58 58 58 58 58 57 54 53 53 53 54 52 50 49 47 46 46 45 45 44 43 44 43 41 38 39 39 31 25 21 28 34 37 36 38 37
54 54 54 55 56 56 58 58 58 58 58 58 57 56 55 53 54 53 50 49 49 46 45 45 46 45 44 44 43 41 41 38 32 36 36 37 32 23 23 32 35 37 36
53 53 54 55 56 57 58 59 58 58 58 58 58 57 56 56 54 52 50 49 49 47 44 45 45 45 44 44 43 41 40 39 38 33 34 34 34 35 31 24 28 34 34
51 52 53 54 54 57 58 59 58 57 57 57 57 56 55 53 52 52 49 48 48 46 45 43 44 45 43 41 40 40 39 39 37 35 35 33 30 28 31 30 31 31 33
50 49 49 51 52 54 57 58 57 57 57 57 57 56 55 54 53 52 50 48 46 45 44 44 43 42 42 42 41 39 37 38 36 37 36 37 36 37 36 36 32 29 29
46 47 47 49 52 54 55 57 57 57 57 57 57 57 55 55 53 50 50 49 46 44 44 43 42 43 43 41 41 38 39 38 38 39 39 36 35 35 34 31 31 28 26
41 43 45 49 51 53 55 57 57 56 57 57 58 58 57 56 53 51 51 49 47 44 43 43 44 43 43 41 40 39 38 38 39 39 38 36 34 35 34 34 34 34 30
41 41 43 48 51 53 54 57 57 56 57 57 58 58 57 56 54 52 50 48 45 43 44 43 43 44 41 41 40 37 37 37 37 36 37 35 34 34 34 34 34 34 32
45 45 47 50 53 55 55 57 57 57 57 58 58 57 57 55 52 51 49 46 45 44 42 44 44 41 41 39 38 37 37 36 36 36 35 35 35 34 34 34 34 32 31
46 48 51 54 55 56 56 57 57 57 58 58 57 56 53 50 49 47 45 46 44 45 45 42 41 41 39 39 37 36 35 36 35 35 35 34 30 34 34 32 32 30 29
47 50 52 53 55 56 57 57 56 57 55 52 50 49 47 46 46 46 46 46 44 44 43 42 40 41 41 37 36 36 36 35 34 34 34 32 32 32 32 32 30 28 25
45 48 51 53 54 55 55 55 54 52 48 48 48 47 46 46 46 46 45 45 44 41 41 43 42 40 37 35 35 35 35 35 34 35 34 32 32 32 31 28 28 27 25
36 46 48 52 52 52 50 49 49 49 48 47 46 46 46 46 45 44 43 43 43 43 42 39 37 37 37 34 35 34 35 34 34 34 31 32 32 32 30 26 26 25 22
45 45 45 49 50 48 47 46 47 47 47 46 46 45 44 43 42 43 42 41 38 37 37 38 37 37 35 34 34 34 34 33 32 31 30 30 31 30 32 32 30 25 23
44 44 45 46 47 46 46 46 45 45 44 44 43 41 41 40 39 37 37 39 41 41 41 40 38 36 35 35 35 35 33 32 32 32 30 28 26 29 27 28 29 30 28
41 41 41 41 41 41 41 42 40 40 39 37 36 36 37 39 40 41 41 42 41 40 37 35 34 33 31 33 34 34 34 34 33 33 32 31 30 29 28 27 25 25 25
34 35 36 36 36 37 38 36 35 34 35 37 38 39 40 39 40 40 40 38 34 33 32 31 32 32 32 33 33 33 33 33 32 32 32 31 30 30 30 28 27 25 26
32 31 32 33 33 33 34 35 35 36 37 38 38 39 41 40 37 34 32 32 31 29 30 29 30 31 31 32 33 32 33 34 33 32 31 31 30 30 29 31 31 29 26
29 29 30 29 29 32 34 35 36 36 37 37 32 31 29 29 29 30 29 29 29 30 32 31 32 31 31 31 32 32 32 34 33 32 31 32 30 31 31 31 32 32 28
27 28 28 28 30 32 31 29 28 28 28 28 28 28 29 28 28 30 30 30 29 30 29 33 30 29 29 30 30 31 32 31 32 32 33 33 31 31 32 31 31 30 28
27 28 28 29 29 28 29 28 28 27 28 29 29 28 26 25 24 23 22 21 21 23 24 24 26 26 27 27 29 30 31 30 32 32 31 31 32 32 31 31 31 30 30
29 27 27 27 28 29 28 28 29 28 26 24 23 22 21 19 19 18 18 19 22 23 23 23 23 24 23 25 27 28 29 28 29 30 31 30 32 32 32 31 32 32 32
26 26 28 28 27 26 24 23 22 22 21 21 19 19 19 19 17 17 19 21 23 24 23 23 23 26 25 23 23 24 26 29 29 30 31 31 31 31 31 30 30 30 31
26 28 27 24 22 22 21 20 21 19 18 16 17 19 19 19 17 17 18 21 22 23 23 21 23 23 21 21 21 23 23 27 30 29 30 30 32 31 30 30 29 28 28